JO-97
1 43803U 18099AX  24320.41069391  .00017975  00000-0  10153-2 0  9990
2 43803  97.5004  16.0756 0009542 136.9822 223.2157 15.13132664325511
Suomi 100
1 43804U 18099AY  24320.43079117  .00016690  00000-0  97849-3 0  9991
2 43804  97.5077  15.8045 0014892 139.1686 221.0663 15.11753077325486
ISAT
1 43879U 18111D   24320.27208802  .00025660  00000-0  12567-2 0  9995
2 43879  97.6065 225.8084 0010371 184.2166 175.8982 15.18100537322272
UWE-4
1 43880U 18111E   24320.25728444  .00021677  00000-0  11205-2 0  9996
2 43880  97.5997 225.3602 0013216 199.7639 160.3083 15.16214212322269
Sparrow
1 43881U 18111F   24320.31686209  .00027379  00000-0  13143-2 0  9994
2 43881  97.6175 228.0819 0006285 229.0246 131.0445 15.18814089322355
Prox-1
1 44339U 19036A   24320.35642365  .00019684  00000-0  29851-2 0  9992
2 44339  23.9998 329.0844 0007850 245.7088 114.2588 14.72577398287503
SONATE
1 44400U 19038Q   24320.46028030  .00050849  00000-0  99469-3 0  9993
2 44400  97.7130 322.5945 0009530 290.0946  69.9277 15.47223009297357
Taurus 1
1 44530U 19059C   24320.83463265  .00016182  00000-0  33563-2 0  9998
2 44530  98.5889  85.6085 0010355 306.9169  53.1081 14.60224714273859
Duchifat 3
1 44854U 19089C   24320.75376209  .00035198  00000-0  13151-2 0  9991
2 44854  36.9518 202.9987 0012605 293.8808  66.0621 15.26410922271281
TO-108
1 44881U 19093C   24320.80346744  .00002509  00000-0  30223-3 0  9993
2 44881  97.8163  34.6391 0014030 181.0832 179.0354 14.84677002265537
FloripaSat 1
1 44885U 19093G   24320.80053900  .00011913  00000-0  11184-2 0  9999
2 44885  97.8335  42.4981 0011716 168.1328 192.0170 14.94063238265978
RS-44
1 44909U 19096E   24320.47062167  .00000035  00000-0  88106-4 0  9990
2 44909  82.5240   4.2483 0218393  57.6996 304.5054 12.79735941228324
UPMSat 2
1 46276U 20061E   24320.21710957  .00041349  00000-0  89327-3 0  9990
2 46276  97.2782  25.4683 0000663  11.5268 348.5996 15.44405353233396
AmicalSat
1 46287U 20061R   24320.45869214  .00182587  00000-0  18035-2 0  9996
2 46287  97.3248  29.8021 0001223 321.5356  38.5816 15.65311606232953
SALSAT
1 46495U 20068K   24320.46496161  .00013658  00000-0  68481-3 0  9995
2 46495  97.8361 284.1317 0013890 145.7777 214.4354 15.17388629227216
IDEASSat
1 47458U 21006AX  24320.14267435  .00370832  00000-0  17897-2 0  9997
2 47458  97.3007  22.9026 0002450 337.1559  22.9600 15.81607202212041
CubeSX-Sirius-HSE
1 47951U 21022V   24320.80111157  .00060713  00000-0  15384-2 0  9998
2 47951  97.4412 219.8149 0009131 339.9396  20.1489 15.39466740201771
CubeSX-HSE
1 47952U 21022W   24320.80188329  .00059688  00000-0  14982-2 0  9996
2 47952  97.4410 219.9497 0009036 338.1434  21.9425 15.39761083201783
KSU-Cubesat
1 47954U 21022Y   24320.67390945  .00083817  00000-0  16296-2 0  9993
2 47954  97.4414 222.1944 0006347 338.6046  21.4938 15.47285149201639
GRBAlpha
1 47959U 21022AD  24320.82478850  .00063581  00000-0  15946-2 0  9994
2 47959  97.4410 220.1409 0008989 337.7594  22.3261 15.39768796200617
Orbicraft-Zorkiy
1 47960U 21022AE  24320.79003709  .00080992  00000-0  17289-2 0  9996
2 47960  97.4454 222.1518 0007362 341.1616  18.9359 15.44551771201404
TUBIN
1 48900U 21059X   24320.75658607  .00035844  00000-0  89050-3 0  9992
2 48900  97.6612 110.9574 0005495 271.5068  88.5547 15.40224822188164
LEDSAT
1 49069U 21073D   24320.67044746  .00040142  00000-0  11470-2 0  9996
2 49069  97.4206  31.6185 0015950 105.5200 254.7806 15.35761725179602
CUTE
1 49263U 21088D   24320.16586131  .00043836  00000-0  14262-2 0  9996
2 49263  97.4792  26.0682 0010416 269.4676  90.5372 15.31691798172646
TeikyoSat 4
1 49396U 21102B   24320.83013840  .00004265  00000-0  29639-3 0  9994
2 49396  97.4406   0.5528 0014606 115.1213 245.1531 15.05956560165560
Z-Sat
1 49399U 21102E   24320.79617579  .00009385  00000-0  55891-3 0  9998
2 49399  97.4119   2.5428 0020852  95.7938 264.5670 15.11232436165860
KOSEN 1
1 49402U 21102H   24320.74666142  .00013631  00000-0  72008-3 0  9996
2 49402  97.4038   4.5831 0018892  78.0605 282.2744 15.15463264166062
HO-113
1 50466U 21131B   24320.82020771  .00001546  00000-0  50232-3 0  9998
2 50466  98.5225  45.1833 0004744  45.3889 314.7685 14.40254256151828
IRIS-A
1 51044U 22002BN  24320.43358237  .00055539  00000-0  11730-2 0  9997
2 51044  97.3651  27.4270 0004290 206.4687 153.6343 15.44995865157652
Planetum 1
1 52738U 22057G   24320.79510480  .00601725  14431-3  19179-2 0  9992
2 52738  97.5650  95.9182 0008603 297.3091  62.7306 15.91049725138145
Foresail-1
1 52766U 22057AL  24320.33559028  .00054964  00000-0  11492-2 0  9995
2 52766  97.5968  90.7781 0007999 310.5344  49.5207 15.45272397137674
SNUGLITE 2
1 52899U 22065F   24320.37680601  .00002926  00000-0  59216-3 0  9995
2 52899  98.1405  98.9039 0008273  45.7509 314.4370 14.62033621126346
IO-117
1 53106U 22080B   24317.91823954 -.00000003  00000-0  00000-0 0  9999
2 53106  70.1294 140.8531 0008378  74.0630 286.0952  6.42557820 54828
FO-118
1 54684U 22167C   24320.79770561  .00101984  00000-0  17451-2 0  9991
2 54684  97.6153 111.2002 0008770 317.0661  42.9904 15.50851710107608
SSS-2B
1 56184U 23054G   24320.72337113  .00253587  00000-0  17074-2 0  9997
2 56184  97.3422 222.3147 0005228  66.5009 293.6805 15.74398213 89640
SO-120
1 56992U 23084BU  24320.58050195  .00125125  00000-0  20750-2 0  9994
2 56992  97.5381  83.6597 0008414 222.2791 137.7813 15.51652685 79433
MRC-100
1 56993U 23084BV  24320.78033250  .00208344  00000-0  23551-2 0  9997
2 56993  97.5369  85.2619 0007607 234.9370 125.1174 15.61741760 79568
UmKA 1 (RS40S)
1 57172U 23091G   24320.77889785  .00011485  00000-0  68706-3 0  9996
2 57172  97.5914  11.4533 0014978 327.7530  32.2782 15.11114194 76355
CubeBel-2 (EU11S)
1 57175U 23091K   24320.80895675  .00015987  00000-0  90518-3 0  9995
2 57175  97.5920  11.7088 0013374 340.2072  19.8638 15.13039631 76370
VERONIKA
1 58261U 23174F   24320.72247041  .00046729  00000-0  14251-2 0  9990
2 58261  97.4449  35.0857 0009678  68.4564 291.7709 15.33751397 56822
KAFASAT
1 58317U 23174BP  24320.57252759  .00080336  00000-0  18644-2 0  9999
2 58317  97.4381  36.5363 0007506  36.6784 323.4975 15.42059894 56928
ENSO
1 58470U 23185J   24320.79179843  .00039196  00000-0  11979-2 0  9999
2 58470  97.4075  26.6903 0010891 101.7065 258.5400 15.33712564 53282
EIRSAT-1
1 58472U 23185L   24320.78587016  .00045813  00000-0  13137-2 0  9996
2 58472  97.4068  26.9687 0010206 101.4871 258.7519 15.35695131 53308
SONATE-2
1 59112U 24043Q   24320.31044454  .00024377  00000-0  96244-3 0  9998
2 59112  97.4947  83.2957 0013583 123.8921 236.3611 15.25436154 38784
MO-122
1 60209U 24125G   24320.09260265  .00022541  00000-0  88544-3 0  9998
2 60209  97.3007 169.2524 0023935 149.7427 210.5199 15.25435142 20360
GRBBeta
1 60237U 24128C   24320.50031340  .00008278  00000-0  68479-3 0  9994
2 60237  61.9941  76.3386 0026483   3.4370 356.6896 14.99315767 19266
Curium One
1 60242U 24128H   24320.60373848  .00013809  00000-0  11197-2 0  9993
2 60242  61.9848  76.1307 0026740 353.5427   6.5314 14.99677025 19283
ROBUSTA-3A
1 60243U 24128J   24320.62316388  .00013372  00000-0  10943-2 0  9995
2 60243  61.9913  76.3239 0024825 350.8881   9.1754 14.99380014 19285
CatSat
1 60246U 24125J   24320.57437504  .00017225  00000-0  69645-3 0  9998
2 60246  97.2820 170.6239 0050675 104.1083 256.5793 15.23582552 18549
CosmoGirlSat
1 60953U 98067WT  24320.69978831  .00399408  00000-0  18880-2 0  9995
2 60953  51.6245 277.7051 0008021 143.2055 216.9499 15.81338827 12243
Sakura
1 60954U 98067WU  24320.35274452  .00664502  00000-0  21419-2 0  9999
2 60954  51.6229 278.3718 0008720 138.2696 221.8975 15.88676775 12208
CySat-1
1 61501U 98067WZ  24320.32273081  .00184815  00000-0  19454-2 0  9992
2 61501  51.6336 284.9699 0009700 158.1770 201.9639 15.63104471  5941
DORA
1 61502U 98067XA  24320.14862682  .00756562  00000-0  39173-2 0  9998
2 61502  51.6265 284.5434 0013028 140.2899 219.9058 15.78353291  5922
